GLOBALSTAR M001 [-]

Last updated on Thu Dec 28 2023 00:02:57 GMT+0000 (Coordinated Universal Time)

1 25162U 98008A 23361.57920771 -.00000108 00000+0 -88463-4 0 9997 2 25162 52.0034 97.9229 0002096 174.2362 289.9810 12.38175323177111
UTC large
Height (km)
Speed (km/s)
/
Latitude / Longitude
Inclination (degrees)
Orbital Period (minutes)
Azimuth
Elevation
Range (km)
Doppler Factor

Next 0 passes for location: London (51.5072 / 0.1276)

Sorry there are no passes over London.